This is the latest recevied weather packets stored in our database for station/object DL4ABR-6. If no packets are shown the sender has not sent any weather packets the latest 10 day(s).
| Time | Temp. | Humidity | Pressure | Rain* | Wind** | Luminosity | Snow |
|---|---|---|---|---|---|---|---|
| 1778097365 | 10° C | 99% | 1004.2 hPa | 25.4 mm | - | - | - |
| 1778096545 | 10° C | 99% | 1003.8 hPa | 25.4 mm | - | - | - |
| 1778095645 | 10° C | 99% | 1003.8 hPa | 25.4 mm | - | - | - |
| 1778094885 | 10° C | 99% | 1003.8 hPa | 25.4 mm | - | - | - |
| 1778094105 | 10° C | 99% | 1003.5 hPa | 25.4 mm | - | - | - |
| 1778093285 | 10° C | 99% | 1003.2 hPa | 25.4 mm | - | - | - |
| 1778092420 | 10° C | 99% | 1003.2 hPa | 25.4 mm | - | - | - |
| 1778091695 | 10.56° C | 99% | 1003.1 hPa | 25.4 mm | - | - | - |
| 1778090865 | 10.56° C | 99% | 1003 hPa | 25.4 mm | - | - | - |
| 1778090030 | 10.56° C | 99% | 1003 hPa | 25.15 mm | - | - | - |
| 1778089305 | 10.56° C | 99% | 1003.3 hPa | 25.15 mm | - | - | - |
| 1778088415 | 10.56° C | 99% | 1003 hPa | 25.15 mm | - | - | - |
| 1778087590 | 10.56° C | 99% | 1003 hPa | 24.89 mm | - | - | - |
| 1778086770 | 10.56° C | 99% | 1002.9 hPa | 24.64 mm | - | - | - |
| 1778085995 | 10.56° C | 99% | 1002.6 hPa | 24.38 mm | - | - | - |
| 1778085185 | 10.56° C | 99% | 1002.8 hPa | 23.88 mm | - | - | - |
| 1778084350 | 10.56° C | 99% | 1002.7 hPa | 23.62 mm | - | - | - |
| 1778083535 | 10.56° C | 99% | 1002.9 hPa | 22.61 mm | - | - | - |
| 1778082765 | 10.56° C | 99% | 1002.7 hPa | 22.35 mm | - | - | - |
| 1778081995 | 10.56° C | 99% | 1002.9 hPa | 22.1 mm | - | - | - |
| 1778081165 | 10.56° C | 99% | 1002.8 hPa | 22.1 mm | - | - | - |
| 1778080370 | 10.56° C | 99% | 1002.8 hPa | 22.1 mm | - | - | - |
| 1778079580 | 10.56° C | 99% | 1003 hPa | 21.84 mm | - | - | - |
| 1778078750 | 10.56° C | 99% | 1002.8 hPa | 21.84 mm | - | - | - |
| 1778077855 | 10.56° C | 99% | 1002.9 hPa | 21.84 mm | - | - | - |
* Rain since midnight (hover to see other rain measurements)
** Current wind speed in m/s (hover to see current wind gust speed)